Weather History for Linton-On-Ouse, United Kingdom

Change the Weather History Date:

Friday, October 19, 2012

  Actual Average Record
Temperature  
Mean Temperature 49 °F -  
Max Temperature 56 °F 48 °F - ()
Min Temperature 42 °F 39 °F - ()
Degree Days  
Heating Degree Days 16    
Moisture  
Dew Point 47 °F    
Average Humidity 93    
Maximum Humidity 100    
Minimum Humidity 71    
Precipitation  
Precipitation 0.00 in - - ()
Sea Level Pressure  
Sea Level Pressure 29.75 in    
Wind  
Wind Speed 2 mph ()    
Max Wind Speed 6 mph    
Max Gust Speed -    
Visibility 3.0 miles    
Events Fog    
T = Trace of Precipitation, MM = Missing Value Source: Averaged Metar Reports

Daily Weather History Graph

Daily Weather History Graph

Search for Another Location

Airport:

Trip Planner

Search our weather history database for the weather conditions in past years. The results will help you decide how hot, cold, wet, or windy it might be!

Date:

Astronomy

Oct. 19, 2012 Rise Set
Actual Time 7:41 AM BST 5:57 PM BST
Civil Twilight 7:04 AM BST 6:33 PM BST
Nautical Twilight 6:23 AM BST 7:14 PM BST
Astronomical Twilight 5:42 AM BST 7:55 PM BST
Moon 12:43 PM BST (10/19) 8:46 PM BST (10/19)
Length of Visible Light 11h 28m
Length of Day
10h 16m
Waxing Crescent, 21% of the Moon is Illuminated
Oct 19
Waxing Crescent
Oct 22
First Quarter
Oct 29
Full
Nov 7
Last Quarter
Nov 13
New

Hourly Weather History & Observations

Time (BST) Temp. Windchill Dew Point Humidity Pressure Visibility Wind Dir Wind Speed Gust Speed Precip Events Conditions
12:50 AM 50.0 °F - 48.2 °F 94% 29.68 in 6.2 mi South 2.3 mph - N/A   Mostly Cloudy
1:50 AM 48.2 °F - 46.4 °F 93% 29.68 in 5.0 mi SSE 3.5 mph - N/A   Partly Cloudy
2:50 AM 44.6 °F - 42.8 °F 93% 29.68 in 0.1 mi SSW 1.2 mph - N/A   Scattered Clouds
4:50 AM 42.8 °F - 42.8 °F 100% 29.68 in 0.1 mi SE 1.2 mph - N/A   Unknown
5:50 AM 44.6 °F 43.1 °F 44.6 °F 100% 29.71 in 0.1 mi ESE 3.5 mph - N/A Fog Fog
6:50 AM 44 °F - 44 °F 97% 29.73 in 0 mi ESE 2.3 mph - - Fog Heavy Fog
6:50 AM 44.6 °F - 42.8 °F 93% 29.71 in 0.2 mi ESE 2.3 mph - N/A Fog Fog
7:50 AM 42.8 °F - 42.8 °F 100% 29.71 in 0.1 mi East 1.2 mph - N/A Fog Fog
8:50 AM 44.6 °F - 42.8 °F 93% 29.74 in 0.1 mi SE 2.3 mph - N/A Fog Fog
9:50 AM 45 °F - 45 °F 100% 29.78 in 0 mi SSE 1.2 mph - - Fog Partial Fog
9:50 AM 44.6 °F - 44.6 °F 100% 29.77 in 0.2 mi SSE 1.2 mph - N/A Fog Fog
10:50 AM 46.4 °F - 46.4 °F 100% 29.77 in 0.4 mi East 2.3 mph - N/A Fog Fog
11:50 AM 48.2 °F - 48.2 °F 100% 29.77 in 0.6 mi SE 4.6 mph - N/A   Scattered Clouds
12:50 PM 51 °F - 49 °F 90% 29.79 in 4 mi ESE 5.8 mph - -   Mist
12:50 PM 50.0 °F - 48.2 °F 94% 29.77 in 4.3 mi ESE 5.8 mph - N/A   Mostly Cloudy
1:50 PM 55.4 °F - 50.0 °F 82% 29.77 in 6.2 mi SE 3.5 mph - N/A   Mostly Cloudy
2:50 PM 55.4 °F - 50.0 °F 82% 29.74 in 6.2 mi ESE 4.6 mph - N/A   Mostly Cloudy
3:50 PM 56 °F - 49 °F 71% 29.77 in 9 mi ESE 4.6 mph - -   Scattered Clouds
3:50 PM 55.4 °F - 50.0 °F 82% 29.74 in 6.2 mi ESE 4.6 mph - N/A   Mostly Cloudy
4:50 PM 55.4 °F - 50.0 °F 82% 29.77 in 6.2 mi ESE 3.5 mph - N/A   Mostly Cloudy
5:50 PM 53.6 °F - 50.0 °F 88% 29.77 in 6.2 mi SE 4.6 mph - N/A   Overcast
6:50 PM 52 °F - 50 °F 89% 29.79 in 6 mi ESE 2.3 mph - -   Scattered Clouds
6:50 PM 51.8 °F - 50.0 °F 94% 29.77 in 6.2 mi ESE 2.3 mph - N/A   Overcast
7:50 PM 51.8 °F - 50.0 °F 94% 29.77 in 3.7 mi ESE 3.5 mph - N/A   Overcast
8:50 PM 50.0 °F - 50.0 °F 100% 29.77 in - East 2.3 mph - N/A   Overcast
9:50 PM 49 °F - 48 °F 95% 29.81 in 2 mi NW 1.2 mph - -   Scattered Clouds
9:50 PM 48.2 °F - 48.2 °F 100% 29.80 in - NW 1.2 mph - N/A   Mostly Cloudy
10:50 PM 50.0 °F - 48.2 °F 94% 29.77 in 1.6 mi ESE 2.3 mph - N/A   Mostly Cloudy
11:50 PM 48.2 °F - 48.2 °F 100% 29.80 in 0.2 mi NE 1.2 mph - N/A   Mostly Cloudy